Weather History for Erie, PA

Change the Weather History Date:

Saturday, November 3, 2012

  Actual Average Record
Temperature  
Mean Temperature 41 °F 48 °F  
Max Temperature 43 °F 55 °F 80 °F (1961)
Min Temperature 39 °F 40 °F 24 °F (1951)
Degree Days  
Heating Degree Days 24 17  
Month to date heating degree days 70 51  
Since 1 July heating degree days 540 554  
Cooling Degree Days 0 0  
Month to date cooling degree days 0 0  
Year to date cooling degree days 899 638  
Moisture  
Dew Point 30 °F    
Average Humidity 64    
Maximum Humidity 70    
Minimum Humidity 57    
Precipitation  
Precipitation 0.00 in 0.13 in 0.99 in (1970)
Month to date precipitation 0.54 0.39  
Year to date precipitation 33.91 34.88  
Snow  
Snow 0.00 in 0.20 in - ()
Month to date snowfall T 0.4  
Since 1 July snowfall T 0.6  
Since 1 September snowfall T 0.6  
Snow Depth 0.00 in    
Sea Level Pressure  
Sea Level Pressure 30.07 in    
Wind  
Wind Speed 10 mph (NNW)    
Max Wind Speed 15 mph    
Max Gust Speed 22 mph    
Visibility 10 miles    
Events      
T = Trace of Precipitation, MM = Missing Value Source: NWS Daily Summary

Daily Weather History Graph

Daily Weather History Graph

Search for Another Location

Airport:

Trip Planner

Search our weather history database for the weather conditions in past years. The results will help you decide how hot, cold, wet, or windy it might be!

Date:

Astronomy

Nov. 03, 2012 Rise Set
Actual Time 7:56 AM EDT 6:11 PM EDT
Civil Twilight 7:27 AM EDT 6:40 PM EDT
Nautical Twilight 6:54 AM EDT 7:13 PM EDT
Astronomical Twilight 6:21 AM EDT 7:46 PM EDT
Moon 9:49 PM EDT (11/3) 12:01 PM EDT (11/3)
Length of Visible Light 11h 13m
Length of Day
10h 14m
Waning Gibbous, 80% of the Moon is Illuminated
Nov 3
Waning Gibbous
Nov 6
Last Quarter
Nov 13
New
Nov 20
First Quarter
Nov 28
Full

Hourly Weather History & Observations

Time (EDT) Temp. Windchill Dew Point Humidity Pressure Visibility Wind Dir Wind Speed Gust Speed Precip Events Conditions
12:51 AM 39.2 °F 32.0 °F 30.2 °F 70% 29.97 in 10.0 mi NW 11.5 mph 19.6 mph N/A   Overcast
1:03 AM 39.2 °F 33.0 °F 30.2 °F 70% 29.97 in 10.0 mi NW 9.2 mph 16.1 mph N/A   Overcast
1:10 AM 39.2 °F 32.0 °F 30.2 °F 70% 29.97 in 10.0 mi NW 11.5 mph - N/A   Overcast
1:46 AM 39.2 °F 32.0 °F 30.2 °F 70% 29.98 in 10.0 mi NW 11.5 mph - N/A   Overcast
1:51 AM 39.9 °F 34.5 °F 30.9 °F 70% 29.99 in 10.0 mi NW 8.1 mph 18.4 mph N/A   Overcast
2:51 AM 39.9 °F 32.5 °F 30.9 °F 70% 30.00 in 10.0 mi NNW 12.7 mph - N/A   Overcast
3:51 AM 39.9 °F 33.4 °F 30.9 °F 70% 30.01 in 10.0 mi NW 10.4 mph 17.3 mph N/A   Overcast
4:10 AM 39.2 °F 31.6 °F 30.2 °F 70% 29.99 in 10.0 mi NW 12.7 mph 19.6 mph N/A   Overcast
4:51 AM 39.9 °F 33.4 °F 30.0 °F 68% 30.02 in 10.0 mi NW 10.4 mph - N/A   Overcast
5:51 AM 39.9 °F 32.9 °F 30.0 °F 68% 30.03 in 10.0 mi NNW 11.5 mph 20.7 mph N/A   Overcast
6:51 AM 39.9 °F 32.9 °F 30.0 °F 68% 30.05 in 10.0 mi NNW 11.5 mph 18.4 mph N/A   Overcast
7:00 AM 39.2 °F 32.5 °F 30.2 °F 70% 30.03 in 10.0 mi NNW 10.4 mph 20.7 mph N/A   Overcast
7:07 AM 39.2 °F 33.6 °F 30.2 °F 70% 30.04 in 10.0 mi NNW 8.1 mph - N/A   Overcast
7:51 AM 39.0 °F 31.8 °F 30.0 °F 70% 30.07 in 10.0 mi NW 11.5 mph - N/A   Overcast
8:35 AM 39.2 °F 31.6 °F 30.2 °F 70% 30.07 in 10.0 mi NNW 12.7 mph 19.6 mph N/A   Overcast
8:43 AM 39.2 °F 33.0 °F 30.2 °F 70% 30.07 in 10.0 mi NW 9.2 mph 18.4 mph N/A   Overcast
8:51 AM 39.0 °F 31.8 °F 28.9 °F 67% 30.09 in 10.0 mi NW 11.5 mph - N/A   Overcast
9:51 AM 39.9 °F 33.9 °F 30.0 °F 68% 30.10 in 10.0 mi NW 9.2 mph - N/A   Overcast
10:51 AM 41.0 °F 34.7 °F 30.9 °F 67% 30.10 in 10.0 mi NNW 10.4 mph - N/A   Mostly Cloudy
11:51 AM 41.0 °F 34.7 °F 30.9 °F 67% 30.11 in 10.0 mi NW 10.4 mph - N/A   Mostly Cloudy
12:51 PM 43.0 °F 37.2 °F 28.9 °F 58% 30.11 in 10.0 mi NW 10.4 mph 16.1 mph N/A   Mostly Cloudy
1:41 PM 42.8 °F 37.0 °F 30.2 °F 61% 30.09 in 10.0 mi WNW 10.4 mph - N/A   Mostly Cloudy
1:51 PM 42.8 °F 37.0 °F 30.2 °F 61% 30.09 in 10.0 mi WNW 10.4 mph - N/A   Overcast
2:51 PM 41.0 °F 34.3 °F 30.0 °F 65% 30.11 in 10.0 mi WNW 11.5 mph - N/A   Overcast
3:51 PM 41.0 °F 33.5 °F 28.9 °F 62% 30.11 in 10.0 mi WNW 13.8 mph - N/A   Overcast
4:51 PM 41.0 °F 35.8 °F 30.0 °F 65% 30.11 in 10.0 mi NW 8.1 mph - N/A   Overcast
5:51 PM 42.1 °F 37.7 °F 30.0 °F 62% 30.11 in 10.0 mi NW 6.9 mph - N/A   Overcast
6:51 PM 42.1 °F 35.7 °F 28.9 °F 60% 30.11 in 10.0 mi NNW 11.5 mph - N/A   Overcast
7:51 PM 41.0 °F 35.2 °F 28.0 °F 60% 30.12 in 10.0 mi NNW 9.2 mph - N/A   Overcast
8:51 PM 41.0 °F 35.8 °F 28.0 °F 60% 30.13 in 10.0 mi NNW 8.1 mph - N/A   Overcast
9:31 PM 41.0 °F 35.2 °F 30.2 °F 65% 30.11 in 10.0 mi North 9.2 mph - N/A   Overcast
9:51 PM 39.9 °F 33.9 °F 30.0 °F 68% 30.13 in 10.0 mi North 9.2 mph - N/A   Overcast
10:00 PM 39.2 °F 31.6 °F 28.4 °F 65% 30.11 in 10.0 mi North 12.7 mph - N/A   Overcast
10:51 PM 39.0 °F 32.8 °F 27.0 °F 62% 30.13 in 10.0 mi North 9.2 mph - N/A   Overcast
11:51 PM 39.0 °F 34.0 °F 28.0 °F 65% 30.14 in 10.0 mi North 6.9 mph - N/A   Overcast